[[{"header":{"parameterUnit":"m.s-1","parameterCategory":2,"la1":30.2992,"la2":30.254,"lo1":-89.0895,"lo2":-89.0443,"dy":0.0025,"dx":0.0025,"nx":19,"ny":19,"refTime":"2026-05-05T21:00:00:Z","depth":"0","parameterNumber":2,"parameterNumberName":"U-component_of_CURRENTS"},"data":[0,0,0,0.0135,0.0136,0.0151,0.0152,0.0211,0.0212,0,0,0,0,0,0,0,0,0,0,0,0.0135,0.0135,0.0135,0.0136,0.0151,0.0152,0.0211,0.0212,0,0,0,0,0,0,0,0,0,0,0,0.0135,0.0135,0.0135,0.0136,0.0151,0.0152,0.0211,0.019,0,0,0,0,0,0,0,0,0,0,0.017,0.0163,0.0135,0.0135,0.0136,0.0151,0.0152,0.0189,0.0192,0.0214,0,0.0217,0,0.0213,0.0216,0.0217,0,0,0,0.014,0.016,0.0163,0.0135,0.0136,0.0151,0.0146,0.019,0.0193,0.0218,0.0218,0.0219,0.0214,0.0217,0.0217,0.0239,0.0238,0,0,0.0139,0.0141,0.0161,0.0165,0.0142,0.0145,0.0146,0.0192,0.0198,0.0218,0.0221,0.0215,0.0217,0.0218,0.0239,0.0239,0,0,0,0.0134,0.014,0.0141,0.0163,0.0161,0.0145,0.0146,0.0196,0.0195,0.0221,0.0216,0.0218,0.0218,0.0239,0.0239,0.0239,0,0,0,0.0133,0.0136,0.0141,0.0142,0.016,0.0173,0.015,0.0192,0.0197,0.0215,0.0218,0.0219,0.0239,0.0239,0.024,0.0247,0,0,0,0.0134,0.0136,0.0138,0.0142,0.0146,0.0172,0.0175,0.0193,0.0194,0.0217,0.0219,0.024,0.0239,0.024,0.0248,0.0287,0,0,0,0.0135,0.014,0.0138,0.0145,0.0146,0.0151,0.0174,0.0185,0.0201,0.0218,0.0239,0.0239,0.0241,0.0248,0.0287,0.0309,0.0312,0,0,0.014,0.0141,0.0144,0.0142,0.0147,0.0149,0.0156,0.0187,0.0199,0.0229,0.0229,0.024,0.0248,0.0287,0.0271,0.0276,0,0,0,0.0145,0.0151,0.015,0.0155,0.0154,0.0154,0.0171,0.0183,0.0204,0.0205,0.0226,0.0231,0.0257,0.0268,0.0271,0.0256,0.0236,0.0236,0.0236,0.0172,0.0166,0.0175,0.0168,0.0165,0.0162,0.017,0.0188,0.0199,0.02,0.0222,0.0237,0.0247,0.025,0.0232,0.0206,0.0206,0.0206,0.0206,0.02,0.0213,0.0199,0.0205,0.0191,0.0195,0.0186,0.0189,0.0222,0.021,0.0235,0.0254,0.0254,0.0234,0.0206,0.0206,0.0206,0.0206,0.0206,0.0237,0.0241,0.0242,0.0251,0.0249,0.0223,0.0234,0.0219,0.023,0.0244,0.0284,0.0284,0.0279,0.0266,0.0266,0.0266,0.0266,0.0267,0.0267,0.028,0.0278,0.0299,0.0301,0.0306,0.0294,0.0272,0.028,0.0289,0.0292,0.0293,0.0276,0.0256,0.0269,0.027,0.0269,0.0269,0.0268,0.0268,0.0329,0.0334,0.0362,0.0374,0.0382,0.0388,0.0359,0.0363,0.0378,0.0393,0.0333,0.0327,0.0339,0.0336,0.035,0.0373,0.0373,0.0373,0.0373,0.0371,0.0373,0.0415,0.0437,0.0452,0.0429,0.045,0.043,0.0401,0.0381,0.0365,0.0339,0.0335,0.0345,0.0342,0.0355,0.0378,0.0378,0.0378,0.0411,0.0415,0.0454,0.0469,0.0482,0.0475,0.0474,0.0423,0.0379,0.0375,0.0339,0.0339,0.0294,0.029,0.03,0.0296,0.0316,0,0]},{"header":{"parameterUnit":"m.s-1","parameterCategory":2,"la1":30.2992,"la2":30.254,"lo1":-89.0895,"lo2":-89.0443,"dy":0.0025,"dx":0.0025,"nx":19,"ny":19,"refTime":"2026-05-05T21:00:00:Z","depth":"0","parameterNumber":3,"parameterNumberName":"V-component_of_CURRENTS"},"data":[0,0,0,0.0149,0.015,0.0208,0.0209,0.0281,0.0282,0,0,0,0,0,0,0,0,0,0,0,0.0129,0.013,0.0149,0.015,0.0208,0.0209,0.0281,0.0282,0,0,0,0,0,0,0,0,0,0,0,0.0129,0.013,0.013,0.015,0.0208,0.0209,0.0281,0.0239,0,0,0,0,0,0,0,0,0,0,0.0183,0.0157,0.0129,0.013,0.0151,0.0208,0.0209,0.0237,0.0241,0.0253,0,0.026,0,0.027,0.0286,0.0286,0,0,0,0.0155,0.0153,0.0174,0.013,0.0151,0.0208,0.0184,0.0239,0.0245,0.0259,0.0261,0.0264,0.0272,0.0286,0.0287,0.0332,0.0332,0,0,0.0152,0.0136,0.017,0.0177,0.0164,0.0182,0.0185,0.0243,0.0244,0.0261,0.0266,0.0273,0.0287,0.0287,0.0332,0.0332,0,0,0,0.014,0.0133,0.0154,0.0174,0.0184,0.0183,0.0187,0.0241,0.0249,0.0266,0.0274,0.0287,0.0288,0.0332,0.0332,0.0298,0,0,0,0.0138,0.0126,0.0152,0.0142,0.0183,0.0212,0.0184,0.0245,0.0252,0.0273,0.0287,0.0289,0.0332,0.0332,0.0299,0.0295,0,0,0,0.0127,0.0125,0.0132,0.0141,0.0165,0.0211,0.0223,0.0247,0.0256,0.0286,0.0289,0.0332,0.0332,0.03,0.0296,0.034,0,0,0,0.0108,0.0095,0.0132,0.0117,0.0164,0.0169,0.0222,0.0236,0.0255,0.0288,0.0332,0.0332,0.03,0.0297,0.0339,0.0373,0.0376,0,0,0.0075,0.009,0.008,0.0115,0.0102,0.0162,0.0163,0.0218,0.0263,0.0314,0.0316,0.0299,0.0296,0.034,0.0375,0.0378,0,0,0,0.0059,0.0052,0.0054,0.0059,0.0081,0.0121,0.0167,0.0207,0.0271,0.0276,0.0309,0.0309,0.0338,0.0358,0.036,0.0433,0.0333,0.0333,0.0333,-0.0005,0.0008,-0.001,0.0013,0.0026,0.0089,0.0135,0.0204,0.0235,0.0267,0.0288,0.0308,0.0327,0.033,0.0403,0.0291,0.0291,0.0291,0.0291,-0.0062,-0.0071,-0.0048,-0.0058,-0.0007,0.001,0.0115,0.0165,0.0262,0.0273,0.0302,0.0328,0.0331,0.0409,0.0289,0.0289,0.029,0.029,0.029,-0.0103,-0.0105,-0.0106,-0.0104,-0.008,-0.0015,0.0076,0.0155,0.024,0.0274,0.0341,0.0342,0.0409,0.03,0.03,0.0301,0.0301,0.0301,0.0301,-0.014,-0.0142,-0.0149,-0.0145,-0.0131,-0.0074,0.0067,0.0161,0.0278,0.0324,0.0325,0.0429,0.0312,0.031,0.0303,0.0303,0.0303,0.0302,0.0302,-0.0187,-0.0177,-0.0186,-0.018,-0.0137,-0.0042,0.0059,0.0263,0.0348,0.0407,0.0486,0.0368,0.0396,0.0394,0.0395,0.0412,0.0412,0.0412,0.0412,-0.0208,-0.0208,-0.0199,-0.0177,-0.0127,-0.0018,0.021,0.038,0.0525,0.0576,0.0572,0.0569,0.0561,0.0599,0.0592,0.0598,0.0665,0.0665,0.0666,-0.0229,-0.022,-0.0208,-0.0172,-0.0114,0.0055,0.0307,0.0544,0.0671,0.0682,0.0668,0.0658,0.0657,0.0639,0.0699,0.0684,0.0693,0,0]}],[{"header":{"parameterUnit":"m.s-1","parameterCategory":2,"la1":30.2992,"la2":30.254,"lo1":-89.0895,"lo2":-89.0443,"dy":0.0025,"dx":0.0025,"nx":19,"ny":19,"refTime":"2026-05-05T21:00:00:Z","depth":"2","parameterNumber":2,"parameterNumberName":"U-component_of_CURRENTS"},"data":[0,0,0,-0.0282,-0.0283,-0.0301,-0.0301,-0.0212,-0.0211,0,0,0,0,0,0,0,0,0,0,0,-0.0253,-0.0253,-0.0282,-0.0283,-0.0301,-0.0301,-0.0212,-0.0211,0,0,0,0,0,0,0,0,0,0,0,-0.0253,-0.0253,-0.0253,-0.0283,-0.0301,-0.0301,-0.0212,-0.0222,0,0,0,0,0,0,0,0,0,0,-0.0217,-0.0229,-0.0253,-0.0253,-0.0283,-0.0301,-0.0301,-0.0224,-0.0221,-0.0176,0,-0.0176,0,-0.0206,-0.0204,-0.0203,0,0,0,-0.0266,-0.0231,-0.0226,-0.0253,-0.0283,-0.0301,-0.0288,-0.0223,-0.0221,-0.0173,-0.0176,-0.0174,-0.0204,-0.0203,-0.0203,-0.017,-0.017,0,0,-0.0265,-0.0263,-0.0228,-0.0224,-0.0282,-0.0288,-0.0289,-0.0223,-0.022,-0.0176,-0.0173,-0.0203,-0.0202,-0.0202,-0.0169,-0.017,0,0,0,-0.0273,-0.0263,-0.0261,-0.0226,-0.0247,-0.0289,-0.029,-0.0223,-0.022,-0.0172,-0.0202,-0.0202,-0.02,-0.0169,-0.0169,-0.0173,0,0,0,-0.0272,-0.0269,-0.0261,-0.0261,-0.0249,-0.0257,-0.0292,-0.0224,-0.0219,-0.0202,-0.0202,-0.0199,-0.0168,-0.0169,-0.0172,-0.0152,0,0,0,-0.0253,-0.0268,-0.0266,-0.0261,-0.0279,-0.0259,-0.0252,-0.0224,-0.0237,-0.0203,-0.0199,-0.0168,-0.0169,-0.0171,-0.0151,-0.0134,0,0,0,-0.0256,-0.0256,-0.0266,-0.0278,-0.0279,-0.0296,-0.0253,-0.025,-0.0226,-0.0201,-0.0168,-0.0169,-0.0171,-0.015,-0.0134,-0.0149,-0.0151,0,0,-0.0258,-0.0256,-0.0265,-0.0274,-0.0303,-0.0293,-0.0311,-0.0254,-0.0226,-0.0177,-0.0177,-0.0172,-0.0151,-0.0134,-0.0208,-0.0207,0,0,0,-0.0267,-0.0269,-0.0284,-0.0299,-0.0314,-0.0311,-0.029,-0.0273,-0.0229,-0.0221,-0.0192,-0.0178,-0.0167,-0.0178,-0.0178,-0.0174,-0.0174,-0.0174,-0.0174,-0.0251,-0.0267,-0.0285,-0.0301,-0.031,-0.0318,-0.0303,-0.0271,-0.0251,-0.0238,-0.0197,-0.0205,-0.022,-0.0219,-0.0227,-0.0227,-0.0227,-0.0227,-0.0227,-0.0236,-0.0238,-0.0266,-0.0281,-0.0289,-0.0295,-0.0281,-0.0266,-0.0226,-0.0221,-0.021,-0.0201,-0.0219,-0.0228,-0.0228,-0.0227,-0.0227,-0.0227,-0.0227,-0.02,-0.0206,-0.0215,-0.0223,-0.0235,-0.0254,-0.0239,-0.0228,-0.021,-0.0196,-0.0196,-0.0196,-0.0177,-0.0191,-0.0191,-0.019,-0.019,-0.019,-0.019,-0.0146,-0.0166,-0.0158,-0.0165,-0.0178,-0.0179,-0.0183,-0.0182,-0.0185,-0.0188,-0.0188,-0.0192,-0.0194,-0.0175,-0.0188,-0.0188,-0.0189,-0.0189,-0.0189,-0.0096,-0.0106,-0.0085,-0.0088,-0.0105,-0.0088,-0.0111,-0.0124,-0.0123,-0.0132,-0.0185,-0.0185,-0.0176,-0.0177,-0.0159,-0.0166,-0.0166,-0.0166,-0.0166,-0.0057,-0.0066,-0.0035,-0.0037,-0.0027,-0.005,-0.003,-0.0097,-0.0156,-0.0221,-0.0219,-0.0249,-0.0249,-0.0244,-0.0244,-0.0227,-0.0252,-0.0253,-0.0253,-0.0025,-0.0026,0.0013,-0.0003,-0.0001,-0.0007,0.0016,-0.0098,-0.0259,-0.0257,-0.0244,-0.017,-0.0209,-0.021,-0.02,-0.02,-0.0172,0,0]},{"header":{"parameterUnit":"m.s-1","parameterCategory":2,"la1":30.2992,"la2":30.254,"lo1":-89.0895,"lo2":-89.0443,"dy":0.0025,"dx":0.0025,"nx":19,"ny":19,"refTime":"2026-05-05T21:00:00:Z","depth":"2","parameterNumber":3,"parameterNumberName":"V-component_of_CURRENTS"},"data":[0,0,0,0.0041,0.0042,0.0097,0.0097,0.0178,0.0179,0,0,0,0,0,0,0,0,0,0,0,0.0023,0.0023,0.0041,0.0043,0.0097,0.0097,0.0178,0.0179,0,0,0,0,0,0,0,0,0,0,0,0.0023,0.0023,0.0023,0.0043,0.0097,0.0097,0.0178,0.0135,0,0,0,0,0,0,0,0,0,0,0.0081,0.0051,0.0023,0.0023,0.0043,0.0097,0.0097,0.0133,0.0138,0.0155,0,0.0162,0,0.0171,0.0184,0.0185,0,0,0,0.0047,0.0046,0.0071,0.0023,0.0043,0.0097,0.0074,0.0136,0.0141,0.0162,0.0163,0.0166,0.0172,0.0185,0.0185,0.0256,0.0257,0,0,0.0044,0.0026,0.0067,0.0074,0.0056,0.0072,0.0075,0.0139,0.0138,0.0163,0.0168,0.0174,0.0185,0.0186,0.0256,0.0257,0,0,0,0.0032,0.0023,0.0046,0.0071,0.0079,0.0074,0.0077,0.0136,0.0146,0.0169,0.0175,0.0186,0.0187,0.0256,0.0256,0.0222,0,0,0,0.0031,0.0016,0.0044,0.0033,0.0078,0.0104,0.0072,0.0141,0.0149,0.0174,0.0186,0.0188,0.0256,0.0256,0.0223,0.0216,0,0,0,0.0021,0.0015,0.0023,0.0032,0.0054,0.0103,0.0117,0.0143,0.0152,0.0185,0.0188,0.0256,0.0256,0.0223,0.0217,0.0261,0,0,0,-0.0002,-0.0013,0.0022,0.0006,0.0054,0.0073,0.0116,0.0132,0.0154,0.0186,0.0256,0.0256,0.0223,0.0218,0.0261,0.0284,0.0287,0,0,-0.0032,-0.0017,-0.0028,0.0004,0.0004,0.0066,0.0079,0.0127,0.0172,0.0236,0.0238,0.0223,0.0217,0.0261,0.031,0.0313,0,0,0,-0.005,-0.0055,-0.005,-0.0041,-0.0009,0.004,0.0087,0.0129,0.0195,0.0189,0.0242,0.024,0.0269,0.0282,0.0284,0.0259,0.0259,0.0258,0.0258,-0.0111,-0.0094,-0.0109,-0.0078,-0.0053,0.0022,0.007,0.0145,0.0174,0.0208,0.0226,0.0254,0.0267,0.027,0.0238,0.0237,0.0237,0.0237,0.0237,-0.0163,-0.0172,-0.0141,-0.0146,-0.008,-0.0049,0.0068,0.0114,0.0213,0.0223,0.0253,0.0261,0.027,0.0235,0.0235,0.0236,0.0236,0.0236,0.0236,-0.0204,-0.0204,-0.0203,-0.0192,-0.0153,-0.0076,0.0024,0.0108,0.019,0.0222,0.0282,0.0283,0.0246,0.0249,0.0249,0.0249,0.0249,0.0249,0.0249,-0.0242,-0.024,-0.0246,-0.0235,-0.0212,-0.0142,0.0012,0.0104,0.022,0.0265,0.0266,0.0259,0.0259,0.0249,0.0252,0.0251,0.0251,0.0251,0.0251,-0.0286,-0.0278,-0.0285,-0.0272,-0.0211,-0.0108,0.0004,0.0199,0.028,0.0334,0.0307,0.0305,0.0331,0.033,0.0323,0.0345,0.0345,0.0345,0.0345,-0.0308,-0.031,-0.0294,-0.026,-0.0195,-0.0077,0.0134,0.0276,0.036,0.0366,0.0365,0.0346,0.0342,0.0368,0.0366,0.036,0.0391,0.0391,0.0391,-0.0329,-0.0319,-0.0302,-0.0259,-0.0176,-0.0007,0.0213,0.0359,0.0392,0.0391,0.0358,0.0351,0.0319,0.0314,0.0351,0.0348,0.0338,0,0]}],[{"header":{"parameterUnit":"m.s-1","parameterCategory":2,"la1":30.2992,"la2":30.254,"lo1":-89.0895,"lo2":-89.0443,"dy":0.0025,"dx":0.0025,"nx":19,"ny":19,"refTime":"2026-05-05T21:00:00:Z","depth":"4","parameterNumber":2,"parameterNumberName":"U-component_of_CURRENTS"},"data":[0,0,0,-0.0878,-0.0881,-0.1002,-0.1002,-0.1104,-0.1105,0,0,0,0,0,0,0,0,0,0,0,-0.0838,-0.0839,-0.0878,-0.0881,-0.1001,-0.1002,-0.1104,-0.1105,0,0,0,0,0,0,0,0,0,0,0,-0.0838,-0.0839,-0.084,-0.0881,-0.1001,-0.1002,-0.1104,-0.1028,0,0,0,0,0,0,0,0,0,0,-0.0918,-0.089,-0.0839,-0.084,-0.0882,-0.1001,-0.1002,-0.1025,-0.1033,-0.1032,0,-0.105,0,-0.1074,-0.111,-0.111,0,0,0,-0.089,-0.0884,-0.091,-0.084,-0.0883,-0.1001,-0.095,-0.103,-0.1038,-0.1041,-0.1052,-0.1056,-0.1076,-0.111,-0.111,-0.1189,-0.1189,0,0,-0.0883,-0.0867,-0.0904,-0.0915,-0.0913,-0.0946,-0.0953,-0.1036,-0.1046,-0.1052,-0.1059,-0.1077,-0.1111,-0.1111,-0.1188,-0.1189,0,0,0,-0.0858,-0.0862,-0.0888,-0.091,-0.0934,-0.0949,-0.0958,-0.1043,-0.105,-0.106,-0.1079,-0.1111,-0.1112,-0.1188,-0.1188,-0.1235,0,0,0,-0.0854,-0.0847,-0.0885,-0.0878,-0.0932,-0.0998,-0.0963,-0.1045,-0.1055,-0.1078,-0.1111,-0.1113,-0.1188,-0.1188,-0.1233,-0.1224,0,0,0,-0.0833,-0.0845,-0.0857,-0.0876,-0.0924,-0.0997,-0.1011,-0.1048,-0.1065,-0.111,-0.1113,-0.1187,-0.1188,-0.1231,-0.1222,-0.1161,0,0,0,-0.0815,-0.0842,-0.0857,-0.0893,-0.0922,-0.0987,-0.101,-0.108,-0.1122,-0.1111,-0.1188,-0.1188,-0.123,-0.1221,-0.1161,-0.1003,0,0,0,-0.0838,-0.0845,-0.0865,-0.0881,-0.0938,-0.0971,-0.1036,-0.1108,-0.1129,-0.1157,-0.116,-0.1233,-0.1222,-0.1161,-0.105,0,0,0,0,-0.0864,-0.0877,-0.0896,-0.0935,-0.098,-0.1035,-0.1093,-0.113,-0.1204,-0.1155,-0.1236,-0.1226,-0.1186,-0.1095,-0.1192,-0.1192,-0.1192,-0.1192,-0.1192,-0.0859,-0.0889,-0.0928,-0.097,-0.1014,-0.109,-0.1144,-0.1201,-0.1215,-0.1264,-0.1268,-0.1255,-0.1166,-0.1285,-0.1286,-0.1286,-0.1286,-0.1286,-0.1286,-0.0875,-0.0891,-0.0946,-0.1004,-0.1062,-0.1147,-0.1222,-0.1263,-0.1283,-0.1312,-0.1271,-0.1157,-0.1291,-0.129,-0.1289,-0.1289,-0.1288,-0.1288,-0.1288,-0.0848,-0.0863,-0.0917,-0.1,-0.1127,-0.122,-0.1264,-0.1309,-0.1323,-0.1305,-0.1135,-0.1251,-0.1237,-0.126,-0.126,-0.126,-0.126,-0.1259,-0.1259,-0.0796,-0.0846,-0.0904,-0.1014,-0.11,-0.1208,-0.1288,-0.1268,-0.1253,-0.1138,-0.1281,-0.1244,-0.1245,-0.1234,-0.1255,-0.1256,-0.1256,-0.1257,-0.1257,-0.0756,-0.0787,-0.0845,-0.091,-0.1068,-0.111,-0.1199,-0.1105,-0.1023,-0.0939,-0.1031,-0.1043,-0.0987,-0.0993,-0.0971,-0.0915,-0.0913,-0.0911,0,-0.0715,-0.0739,-0.0797,-0.0858,-0.0904,-0.1025,-0.0893,-0.089,-0.0872,-0.0833,-0.1013,-0.1119,-0.1126,-0.107,-0.1072,-0.1049,0,0,0,-0.0691,-0.0701,-0.072,-0.0788,-0.0837,-0.0809,-0.0855,-0.0792,-0.0892,-0.08,-0.086,-0.0873,-0.1152,-0.1243,-0.1185,-0.1186,-0.1162,0,0]},{"header":{"parameterUnit":"m.s-1","parameterCategory":2,"la1":30.2992,"la2":30.254,"lo1":-89.0895,"lo2":-89.0443,"dy":0.0025,"dx":0.0025,"nx":19,"ny":19,"refTime":"2026-05-05T21:00:00:Z","depth":"4","parameterNumber":3,"parameterNumberName":"V-component_of_CURRENTS"},"data":[0,0,0,0.0125,0.0126,0.0215,0.0215,0.0332,0.0333,0,0,0,0,0,0,0,0,0,0,0,0.0092,0.0093,0.0125,0.0126,0.0215,0.0215,0.0332,0.0333,0,0,0,0,0,0,0,0,0,0,0,0.0092,0.0093,0.0093,0.0127,0.0215,0.0215,0.0331,0.0266,0,0,0,0,0,0,0,0,0,0,0.018,0.0147,0.0092,0.0093,0.0127,0.0215,0.0215,0.0263,0.027,0.029,0,0.03,0,0.0317,0.034,0.034,0,0,0,0.0134,0.0141,0.0164,0.0093,0.0128,0.0214,0.0177,0.0267,0.0275,0.03,0.0301,0.0306,0.0319,0.0341,0.0341,0.0488,0.0488,0,0,0.0129,0.0112,0.0158,0.0169,0.0146,0.0174,0.018,0.0272,0.0278,0.0302,0.0309,0.0321,0.0341,0.0342,0.0487,0.0488,0,0,0,0.011,0.0109,0.013,0.0164,0.0179,0.0176,0.0183,0.0274,0.0281,0.031,0.0322,0.0342,0.0343,0.0486,0.0487,0.0493,0,0,0,0.0107,0.0097,0.0127,0.0119,0.0177,0.0227,0.0183,0.0275,0.0286,0.0322,0.0342,0.0344,0.0485,0.0487,0.0491,0.0458,0,0,0,0.0089,0.0095,0.0103,0.0117,0.0152,0.0226,0.0239,0.0277,0.0293,0.034,0.0345,0.0484,0.0486,0.0489,0.0457,0.0453,0,0,0,0.0072,0.0086,0.0103,0.0124,0.0151,0.0214,0.0238,0.0297,0.0339,0.0343,0.0485,0.0487,0.0488,0.0456,0.0452,0.0325,0,0,0,0.008,0.0086,0.0099,0.0116,0.0163,0.0203,0.0261,0.0325,0.0377,0.0454,0.0458,0.0491,0.0457,0.0453,0.0439,0,0,0,0,0.0095,0.0106,0.0124,0.0154,0.0199,0.0238,0.0308,0.0363,0.0467,0.041,0.0529,0.0507,0.0503,0.0431,0.0496,0.0496,0.0496,0.0496,0.0495,0.0087,0.011,0.0134,0.0171,0.0206,0.028,0.0332,0.0424,0.0478,0.0547,0.054,0.0576,0.0506,0.0592,0.0593,0.0593,0.0593,0.0593,0.0593,0.0099,0.0106,0.0134,0.0168,0.0204,0.0264,0.0378,0.044,0.0547,0.0592,0.0589,0.0479,0.0594,0.0594,0.0594,0.0594,0.0593,0.0593,0.0593,0.0085,0.0088,0.0113,0.0146,0.0198,0.0272,0.0341,0.0443,0.0541,0.0556,0.0487,0.0572,0.0536,0.0571,0.0571,0.0571,0.0571,0.0571,0.0571,0.0053,0.0076,0.0093,0.0134,0.0164,0.023,0.0345,0.0376,0.0448,0.046,0.0558,0.0568,0.0569,0.0535,0.0569,0.0569,0.057,0.057,0.057,0.0035,0.0039,0.0066,0.0086,0.0144,0.018,0.0276,0.0288,0.0305,0.0282,0.0409,0.0417,0.0391,0.0396,0.0354,0.0336,0.0334,0.0332,0,0.0007,0.0015,0.005,0.0074,0.0092,0.015,0.0145,0.0164,0.022,0.0243,0.03,0.0445,0.0451,0.0424,0.0425,0.0378,0,0,0,-0.0009,0.0006,0.0025,0.0054,0.0078,0.0088,0.0145,0.0148,0.0233,0.0148,0.0293,0.0303,0.037,0.0563,0.0543,0.0544,0.0488,0,0]}]]